Pagina principale
METAR-TAF:

METAR-TAF

Aeroporti :

Capo Bellavista

Tortolì, Italia

latitudine: 39-56N, longitudine: 009-43E, altezza: 138 m

Osservazione

Il bollettino è stato emesso 46 minuti fa, alle 11:55 UTC
Vento 8 kt da nord/nord-est
Temperature 18°C
Umidità 64%
Pressione 1017 hPa
Visibilità 10 km o più
nessuna nube inferiore a 1500 m e nessun cumulonembo

METAR: LIEB 261155Z 02008KT CAVOK 18/11 Q1017 RMK SKC QUK 2 QUL 0 VIS MAR 30 KM MON LIB VIS MIN 9999

Ora: 14:41 (12:41 UTC)


TAF: mancante

Osservazioni e previsioni meteorologiche di più di 4000 aeroporti (messaggi METAR e TAF).

Le stazioni disponibili sono rappresentate dai dischi gialli e rossi sulla carta.

Puntare il mouse per vedere il nome della stazione.

Clicca sopra per visualizzare le osservazioni e previsioni meteorologiche.

Per cambiare la mappa : fare clic sui pulsanti verdi con una croce nera per ingrandire, il pulsante verde con un trattino per diminuire, o sulla freccia verde per le mappe adiacenti.


METAR-TAF: